FW2969 Weather Reports


time (UTC)temp
C
wind
direction
speed
KPH
gust
KPH
rain 1hr
cm
rain 24hr
cm
rain mn
cm
humidity
%
barometer
mb
20260904090038 24 323 4.8 14.5 0.00 0.00 0.00 75 1008.6
20260904084545 25 255 3.2 16.1 0.00 0.00 0.00 71 1008.5
20260904083040 25 275 3.2 12.9 0.00 0.00 0.00 68 1008.5
20260904081533 24 272 3.2 9.7 0.00 0.00 0.00 70 1008.6
20260904080045 23 289 6.4 12.9 0.00 0.00 0.00 68 1008.6
20260904074531 23 347 1.6 9.7 0.00 0.00 0.00 70 1008.7
20260904073029 23 304 3.2 8.0 0.00 0.00 0.00 70 1008.8
20260904071531 23 285 0.0 6.4 0.00 0.00 0.00 73 1008.8
20260904070035 22 355 1.6 8.0 0.00 0.00 0.00 76 1008.7
20260904064524 22 305 3.2 9.7 0.00 0.00 0.00 75 1008.6
20260904063021 22 211 0.0 8.0 0.00 0.00 0.00 75 1008.5
20260904061519 22 202 1.6 8.0 0.00 0.00 0.00 76 1008.4
20260904060017 21 207 0.0 0.0 0.00 0.00 0.00 80 1008.3
20260904054527 21 207 0.0 3.2 0.00 0.00 0.00 83 1008.2
20260904053018 20 207 0.0 4.8 0.00 0.00 0.00 84 1008.2
20260904051513 20 188 0.0 6.4 0.00 0.00 0.00 85 1008.1
20260904050011 20 166 1.6 4.8 0.00 0.00 0.00 83 1008.2
20260904044512 20 157 0.0 3.2 0.00 0.00 0.00 80 1008.2
20260904043009 19 128 0.0 3.2 0.00 0.00 0.00 77 1008.2
20260904041508 19 97 0.0 0.0 0.00 0.00 0.00 70 1008.2
20260904040010 19 97 0.0 0.0 0.00 0.00 0.00 67 1008.0
20260904034505 19 97 0.0 0.0 0.00 0.00 0.00 68 1007.9
20260904033007 19 97 0.0 1.6 0.00 0.00 0.00 69 1007.7
20260904031503 18 97 0.0 1.6 0.00 0.00 0.00 71 1007.6
20260904030001 18 97 0.0 1.6 0.00 0.00 0.00 72 1007.4
20260904024600 18 97 0.0 1.6 0.00 0.00 0.00 74 1007.5
20260904023057 18 97 0.0 1.6 0.00 0.00 0.00 76 1007.3
20260904021606 18 97 0.0 1.6 0.00 0.00 0.00 78 1007.3
20260904020056 18 97 0.0 1.6 0.00 0.00 0.00 83 1007.2
20260904014604 18 97 0.0 3.2 0.00 0.00 0.00 87 1007.2
20260904013113 18 99 0.0 1.6 0.00 0.00 0.00 89 1007.2
20260904011614 18 99 0.0 1.6 0.00 0.00 0.00 91 1007.2
20260904010045 18 100 0.0 4.8 0.00 0.00 0.00 92 1007.3
20260904004544 18 107 1.6 4.8 0.00 0.00 0.00 93 1007.4
20260904003044 18 101 1.6 4.8 0.00 0.00 0.00 92 1007.5
20260904001541 19 116 0.0 3.2 0.00 0.00 0.00 92 1007.5
20260904000040 19 97 1.6 4.8 0.00 0.00 0.00 92 1007.5
20260903234538 19 154 0.0 1.6 0.00 0.00 0.00 92 1007.5
20260903233038 20 157 0.0 3.2 0.00 0.00 0.00 92 1007.4
20260903231544 20 161 0.0 1.6 0.00 0.00 0.00 92 1007.5
20260903230036 20 161 0.0 3.2 0.00 0.00 0.00 92 1007.5
20260903224538 20 161 0.0 1.6 0.00 0.00 0.00 92 1007.5
20260903223033 20 161 0.0 1.6 0.00 0.00 0.00 93 1007.5
20260903221531 20 162 0.0 3.2 0.00 0.00 0.00 94 1007.4
20260903220036 21 197 0.0 0.0 0.00 0.00 0.00 94 1007.5
20260903214530 21 197 0.0 0.0 0.00 0.00 0.00 94 1007.5
20260903213026 21 197 0.0 0.0 0.00 0.00 0.00 95 1007.6
20260903211533 21 176 0.0 0.0 0.00 0.00 0.00 95 1007.7
20260903210022 21 176 0.0 0.0 0.00 0.00 0.00 95 1007.8
20260903204521 21 176 0.0 1.6 0.00 0.00 0.00 95 1007.8
20260903203021 21 176 0.0 1.6 0.00 0.00 0.00 94 1007.7
20260903201521 21 176 0.0 3.2 0.00 0.00 0.00 94 1007.8
20260903200020 21 129 0.0 0.0 0.00 0.00 0.00 95 1007.8
20260903194525 21 129 0.0 1.6 0.00 0.00 0.00 94 1007.6
20260903193019 21 129 0.0 1.6 0.00 0.00 0.00 94 1007.7
20260903191528 21 129 0.0 0.0 0.00 0.00 0.00 94 1007.6
20260903190018 21 129 0.0 0.0 0.00 0.00 0.00 94 1007.6
20260903184518 21 336 0.0 3.2 0.00 0.00 0.00 94 1007.5
20260903183017 21 339 0.0 1.6 0.00 0.00 0.00 93 1007.5
20260903181517 21 337 0.0 0.0 0.00 0.00 0.00 93 1007.6
20260903180022 21 327 0.0 1.6 0.00 0.00 0.00 92 1007.6
20260903174520 21 328 0.0 1.6 0.00 0.00 0.00 92 1007.5
20260903173015 21 328 0.0 0.0 0.00 0.00 0.00 91 1007.3
20260903171515 21 328 0.0 1.6 0.00 0.00 0.00 91 1007.3
20260903170020 21 328 0.0 0.0 0.00 0.00 0.00 90 1007.0
20260903164513 21 328 0.0 0.0 0.00 0.00 0.00 89 1006.9
20260903163012 22 328 0.0 1.6 0.00 0.00 0.00 88 1006.8
20260903161513 22 328 0.0 1.6 0.00 0.00 0.00 87 1006.8
20260903160012 22 308 0.0 1.6 0.00 0.00 0.00 85 1006.8
20260903154511 23 297 0.0 1.6 0.00 0.00 0.00 83 1006.8
20260903153011 24 299 0.0 4.8 0.00 0.00 0.00 81 1006.8
20260903151511 25 261 0.0 3.2 0.00 0.00 0.00 79 1006.8
20260903150011 25 255 0.0 4.8 0.00 0.00 0.00 77 1006.8
20260903144508 25 259 1.6 4.8 0.00 0.00 0.00 76 1006.9
20260903143009 25 285 0.0 6.4 0.00 0.00 0.00 78 1006.8
20260903141506 25 259 3.2 11.3 0.00 0.00 0.00 76 1006.7
20260903140006 25 301 1.6 8.0 0.00 0.00 0.00 77 1006.7
20260903134505 26 309 1.6 9.7 0.00 0.00 0.00 76 1006.6
20260903133005 26 309 1.6 6.4 0.00 0.00 0.00 75 1006.5
20260903131504 26 299 3.2 9.7 0.00 0.00 0.00 74 1006.6
20260903130002 26 284 3.2 8.0 0.00 0.00 0.00 73 1006.6
20260903124503 26 300 3.2 16.1 0.00 0.00 0.00 74 1006.6
20260903123102 26 297 1.6 6.4 0.00 0.00 0.00 74 1006.6
20260903121559 26 261 1.6 8.0 0.00 0.00 0.00 74 1006.6
20260903120104 26 308 1.6 9.7 0.00 0.00 0.00 76 1006.8
20260903114601 26 233 1.6 14.5 0.00 0.00 0.00 79 1006.8
20260903113058 26 313 6.4 17.7 0.00 0.00 0.00 76 1006.9
20260903111553 26 329 4.8 14.5 0.00 0.00 0.00 78 1007.0
20260903110050 26 293 1.6 12.9 0.00 0.00 0.00 80 1007.1
20260903104550 25 326 3.2 16.1 0.00 0.00 0.00 82 1007.2
20260903103049 25 315 3.2 16.1 0.00 0.00 0.00 82 1007.3
20260903101556 25 272 3.2 14.5 0.00 0.00 0.00 83 1007.3
20260903100050 25 273 3.2 8.0 0.00 0.00 0.00 82 1007.3
20260903094612 25 321 1.6 12.9 0.00 0.00 0.00 81 1007.4
20260903093045 25 250 1.6 9.7 0.00 0.00 0.00 81 1007.5
20260903091543 25 271 1.6 9.7 0.00 0.00 0.00 84 1007.6